Location: Ammerl�gen
(47.2167°N, 9.6000°E)
Time: 07:57:34
(UTC+00:00)

Iridium 4 Rocket - Pass Details

Date: 30 July 2021
Orbit: 584 x 904 km, 86.9° (Epoch: 18 September)

Event Time Altitude Azimuth Distance (km) Brightness Sun altitude
Rises 02:27:32 0° 347° (NNW) 3,393 7.3 -12.9°
Reaches altitude 10° 02:30:13 10° 335° (NNW) 2,497 6.4 -12.6°
Maximum altitude 02:34:52 27° 280° (W) 1,636 4.9 -12.1°
Enters shadow 02:38:28 15° 233° (SW) 2,218 5.2 -11.6°
